Theta_e
299 299 300 300 301 301 302 302 302 303 303 305 304 304 303 304 305 305 306 306 307 310 312 313 313 321 319 316 316 317 317 321 320 319 319 320 320 321 322 327 327 327 324 323
299 299 300 300 301 301 302 301 302 302 304 305 305 304 304 304 305 305 306 307 307 308 310 314 315 320 320 316 317 318 317 320 322 321 319 320 320 320 321 321 322 326 325 326
300 300 300 300 301 301 302 297 302 304 304 304 304 305 305 305 305 305 306 307 306 307 308 312 315 318 321 317 319 318 317 319 319 321 321 321 321 320 320 321 322 323 323 324
300 300 300 300 301 301 303 297 301 304 305 306 304 305 305 305 306 305 305 305 306 307 309 313 315 320 317 319 319 321 319 321 319 320 319 320 322 321 320 320 321 325 324 324
300 300 300 301 301 302 303 297 302 303 303 305 306 305 307 307 306 305 305 306 305 307 310 311 315 317 316 319 320 321 319 320 320 320 320 320 321 320 319 320 320 318 318 319
300 300 301 301 301 302 303 300 300 304 305 305 306 306 304 307 306 306 305 305 305 305 307 310 314 318 318 318 321 318 320 320 323 322 321 321 320 319 319 320 320 318 318 317
299 299 299 301 301 302 303 301 301 303 305 305 306 305 306 305 306 307 307 306 305 306 308 316 314 315 315 317 319 318 321 321 323 323 320 325 320 318 319 319 319 318 318 317
299 300 300 299 300 300 301 302 301 303 303 306 306 306 306 305 305 306 307 306 306 304 313 315 316 316 317 316 319 319 319 319 318 323 324 324 322 319 319 319 319 319 319 318
300 300 300 300 299 299 301 299 300 302 303 304 306 306 306 306 305 305 305 306 305 307 308 309 314 318 318 319 318 318 319 319 320 319 325 326 322 320 319 319 319 319 319 318
299 299 299 300 300 300 300 300 299 302 303 303 304 307 306 306 306 305 305 307 307 307 308 306 314 315 317 319 318 318 317 315 317 320 321 322 321 320 319 320 318 318 320 320
300 300 300 300 300 300 300 299 299 302 304 304 304 307 306 308 308 307 305 306 307 309 309 311 314 311 315 316 315 318 319 320 318 317 319 323 319 319 320 318 318 320 321 321
300 301 301 300 300 300 299 299 300 299 304 305 305 305 305 306 307 307 306 306 308 311 313 310 311 309 308 312 312 317 321 319 321 320 319 321 322 322 320 321 321 321 322 320
300 300 301 301 301 300 300 299 300 300 303 305 306 307 304 305 305 308 308 307 306 310 313 312 312 311 312 310 311 311 317 317 318 318 318 316 320 321 318 317 318 319 319 318
301 301 300 300 301 300 300 300 301 301 299 304 306 305 307 306 305 309 310 309 311 309 311 313 311 309 311 310 313 315 313 317 319 320 320 318 318 319 318 317 316 320 319 319
300 301 301 301 302 301 301 300 301 302 304 305 305 305 306 308 308 309 310 309 308 308 307 308 313 312 312 312 314 315 314 315 317 318 318 317 317 318 318 317 318 319 318 318
300 301 301 301 302 301 301 302 302 302 304 305 305 306 306 307 306 307 308 308 308 307 308 308 313 312 315 308 313 315 313 313 313 314 317 320 318 316 316 317 315 317 318 318
301 302 301 302 301 300 301 301 303 302 304 305 304 304 306 306 306 305 306 306 306 307 309 308 311 311 313 304 311 313 313 313 313 318 317 319 318 315 313 312 313 312 312 311
302 302 301 301 300 302 303 303 303 304 304 305 301 303 305 301 305 305 304 305 306 306 309 310 312 311 313 313 313 312 312 312 313 319 316 315 313 311 311 310 309 309 308 307
302 301 301 301 301 302 302 303 303 303 303 299 300 302 304 300 303 304 306 304 301 305 305 308 310 311 314 314 312 312 312 313 312 312 314 313 312 311 310 308 307 306 304 297
300 300 299 297 301 302 301 300 301 302 301 300 298 301 301 301 301 302 302 302 303 310 308 310 309 311 313 314 316 316 316 315 315 314 314 312 311 307 303 300 297 295 292 290
301 301 300 300 301 302 301 301 301 301 302 300 302 303 301 301 302 303 301 305 304 310 310 310 312 310 314 314 312 310 310 307 304 303 303 306 303 298 294 291 290 288 287 285
301 300 300 301 302 302 303 302 301 300 302 301 302 301 303 301 301 301 298 307 306 305 307 306 309 307 303 302 301 299 299 299 298 297 296 294 293 291 290 288 287 286 284 284
301 301 301 303 299 302 298 304 299 303 300 302 301 304 302 300 302 302 303 307 308 306 303 306 304 301 298 297 296 294 293 292 291 291 290 289 288 287 287 286 285 284 283 283
300 300 303 304 304 304 302 304 303 301 303 301 302 303 303 299 301 303 306 307 307 309 312 306 299 295 293 292 292 291 290 289 289 288 287 287 286 285 285 284 284 283 282 282
298 299 301 299 299 297 294 295 298 295 296 301 302 301 301 302 304 303 306 307 310 304 300 296 293 291 290 289 289 288 288 287 287 286 285 284 284 283 283 283 282 282 281 281
292 293 297 295 297 293 291 290 293 292 292 296 300 303 305 306 306 306 302 305 299 297 293 290 289 289 288 288 288 287 286 286 285 285 284 284 283 283 282 282 281 281 281 281
296 292 290 292 293 290 289 290 290 290 293 303 302 303 301 302 303 297 294 294 293 291 290 289 289 288 288 287 287 286 286 285 284 284 283 283 282 282 281 282 281 281 280 279
Wind_Speed
41 40 39 37 34 29 24 8 5 19 35 10 8 19 11 9 15 12 16 15 23 20 19 18 16 20 18 7 6 20 10 4 10 18 22 14 16 12 10 5 5 4 5 5
43 42 40 38 36 33 19 4 3 23 32 14 16 12 19 24 21 20 10 12 12 20 20 12 12 19 11 1 3 4 5 2 7 14 12 11 21 9 13 8 5 6 6 6
44 43 41 40 37 35 32 3 5 5 9 5 18 17 19 22 16 26 22 24 16 19 20 15 7 18 6 6 3 6 7 5 15 14 12 4 5 9 8 7 5 4 6 5
44 43 42 41 39 37 34 6 5 6 9 16 16 18 10 22 22 19 10 17 21 20 14 13 8 5 11 7 6 3 2 5 8 11 20 18 19 12 14 11 7 10 10 15
44 44 42 41 40 40 30 6 6 6 5 16 22 23 20 21 17 22 17 25 17 13 17 14 12 5 6 15 3 3 5 3 4 11 14 15 9 19 11 14 11 7 8 10
44 43 44 42 41 40 16 16 10 3 11 15 18 22 25 17 17 20 20 19 16 18 23 11 8 1 17 19 8 2 4 4 2 7 10 12 8 15 11 17 13 10 9 8
41 41 41 43 44 48 31 13 8 6 8 17 18 20 23 26 21 20 20 15 18 16 6 3 6 6 19 19 5 5 4 3 2 2 1 13 5 7 6 12 9 4 1 2
42 40 41 41 40 44 35 17 11 7 12 8 19 20 19 21 24 27 21 20 9 7 7 4 4 4 6 7 6 5 6 3 3 2 6 6 12 3 5 5 6 4 2 2
44 45 46 47 48 47 43 37 24 10 11 18 10 18 20 14 17 18 21 16 7 4 1 6 5 5 4 5 4 5 6 8 4 2 1 7 1 8 2 2 4 5 1 4
46 46 47 50 50 49 41 24 37 11 9 10 19 7 14 15 11 9 10 7 5 5 3 3 5 4 8 5 8 6 4 3 4 1 3 7 6 8 3 5 6 6 2 3
50 50 49 50 51 50 44 36 32 26 5 4 18 10 5 2 9 7 4 2 3 2 3 5 5 4 7 6 6 7 5 6 2 4 4 5 8 3 4 4 7 5 3 3
49 52 53 52 51 50 48 19 37 35 6 3 4 18 23 20 8 3 3 6 3 3 3 3 3 3 2 6 3 6 5 7 6 10 6 7 3 2 5 6 6 3 3 4
41 41 49 53 52 51 51 32 31 28 4 1 3 8 36 27 22 20 5 3 6 5 5 3 5 4 4 3 6 2 4 5 2 3 7 11 5 5 5 7 10 7 5 7
38 39 40 44 53 53 50 27 31 30 3 2 6 10 12 23 19 24 8 6 3 4 3 2 3 2 3 4 4 4 6 11 10 6 8 4 8 9 7 11 13 8 3 3
33 37 37 42 50 50 45 29 32 33 4 4 6 4 17 25 16 4 1 4 3 2 2 2 3 3 3 3 1 4 6 6 6 5 8 7 5 2 7 16 11 9 7 5
33 35 39 41 48 51 30 5 35 42 11 1 3 1 6 16 14 7 1 1 2 3 3 2 3 7 4 3 4 5 13 10 4 3 2 3 7 7 5 7 3 7 6 5
32 41 41 47 49 42 8 5 27 41 18 2 3 2 2 1 5 3 2 1 2 3 2 3 0 4 4 2 3 4 5 5 5 4 5 5 2 5 7 8 7 8 10 10
41 45 47 52 42 21 8 34 46 29 6 3 3 2 3 6 3 2 4 2 2 1 3 1 3 4 5 4 6 8 10 8 3 3 6 7 8 8 7 7 9 12 12 13
51 54 51 37 10 3 10 36 25 12 5 5 3 4 4 3 2 1 2 3 1 3 3 3 4 5 4 7 5 6 7 6 7 4 8 8 11 9 8 11 10 13 12 16
38 24 6 3 8 37 23 8 3 5 3 3 2 3 3 3 2 0 1 2 3 3 5 5 4 3 9 2 6 6 5 7 5 12 7 10 9 12 14 15 15 15 15 15
8 4 4 20 13 5 3 3 3 1 1 2 3 3 4 2 3 3 1 3 3 4 4 6 3 3 3 6 12 11 12 17 16 17 16 13 15 13 15 15 16 16 18 17
12 18 10 3 2 3 4 3 2 2 5 4 5 3 4 2 2 3 2 3 3 6 5 4 4 2 7 13 15 16 16 17 20 19 19 18 18 15 17 16 16 21 25 25
10 4 4 2 3 4 4 5 2 3 2 3 3 3 3 2 1 2 3 6 6 1 3 4 2 5 8 9 10 15 15 17 19 19 20 24 22 25 23 16 23 27 27 25
3 3 5 3 2 4 3 3 2 2 3 4 4 3 3 2 4 3 4 3 1 2 3 3 2 6 8 8 9 12 15 15 18 17 17 18 19 21 25 25 25 28 25 25
4 4 5 5 2 5 5 4 3 5 4 2 3 2 2 2 3 3 2 2 3 2 3 2 5 7 8 8 10 12 14 13 14 15 17 18 24 25 25 26 27 30 29 29
4 6 4 5 3 6 5 6 4 4 5 3 0 2 2 2 1 2 4 2 4 2 3 5 8 10 9 10 11 12 13 14 15 21 23 25 24 25 27 29 28 28 27 26
4 3 4 4 4 4 2 2 3 3 3 1 1 4 4 3 3 3 4 3 3 5 6 6 10 11 12 12 13 13 19 20 24 25 26 27 28 30 29 22 25 28 28 29
Wind_Direction
263 262 260 256 251 245 230 230 225 175 178 205 217 230 223 262 263 245 254 264 275 278 293 304 288 230 251 220 179 202 189 167 228 256 274 234 195 196 191 152 248 189 144 262
261 260 257 252 246 231 212 218 190 188 180 213 221 234 236 243 255 253 251 253 256 263 276 297 305 292 217 120 94 169 154 139 276 274 283 267 197 184 199 192 161 194 139 252
258 255 250 247 240 229 205 152 191 179 211 221 219 224 235 242 228 246 259 265 280 268 281 281 277 315 292 167 111 105 117 179 227 233 242 211 277 207 217 194 177 225 196 220
255 250 247 242 235 226 201 181 215 189 201 209 218 219 228 227 243 230 220 257 247 262 269 288 271 238 319 308 107 46 132 220 245 253 216 243 237 209 222 228 208 208 249 271
253 250 242 235 229 217 201 181 191 193 210 195 215 219 221 232 253 227 235 238 243 255 252 242 280 329 339 272 140 123 6 274 309 246 262 243 219 278 226 225 235 241 206 229
252 249 246 236 224 209 206 204 217 221 205 193 206 215 223 231 239 260 238 241 245 236 250 270 189 231 302 236 243 151 91 332 209 237 245 278 285 215 230 260 239 200 227 233
247 245 241 235 227 217 212 198 166 209 216 209 207 203 212 223 234 242 258 251 234 246 225 54 22 8 309 297 243 131 111 332 62 280 123 239 232 162 202 232 241 202 167 318
243 239 234 225 217 216 211 216 196 194 224 217 217 203 204 217 228 243 250 255 263 208 170 166 347 346 282 274 200 142 109 88 63 192 211 322 299 213 189 205 257 194 208 291
238 235 228 220 219 216 208 215 222 203 208 217 206 206 206 210 219 235 249 264 248 61 149 237 196 238 278 206 166 164 134 102 119 26 330 214 196 247 342 66 269 281 266 298
236 230 225 218 216 212 207 214 206 230 209 215 206 210 219 214 220 224 231 223 236 131 139 172 170 226 158 282 159 159 117 77 150 184 269 292 246 220 123 190 233 253 154 255
230 224 220 216 212 210 202 209 203 215 196 199 207 177 217 252 217 221 216 212 257 86 156 175 193 164 203 186 232 164 149 144 175 162 234 222 272 33 205 219 257 233 295 290
233 223 215 210 206 203 200 206 202 205 244 201 186 191 193 237 273 250 247 199 196 158 159 213 175 205 187 171 235 179 177 173 177 183 200 234 314 290 100 38 281 319 276 95
218 217 212 206 200 198 195 193 181 192 203 127 149 211 212 231 254 269 207 305 197 176 175 225 219 192 163 164 220 262 253 179 197 96 254 238 245 296 1 343 310 312 352 84
210 206 205 202 193 192 189 183 175 186 135 159 197 222 193 207 250 263 241 226 59 113 105 147 270 186 183 207 216 183 199 177 200 218 257 183 206 191 203 304 284 258 224 150
195 198 197 194 186 182 179 180 181 181 160 180 143 177 211 194 198 178 132 76 81 110 70 126 235 244 1 271 206 219 233 202 180 219 216 180 213 184 205 213 244 268 221 196
185 183 180 180 172 167 155 157 190 180 217 61 118 251 172 169 173 144 160 158 108 102 137 224 222 273 205 267 227 201 238 248 184 218 333 152 127 92 81 93 31 19 76 96
167 163 163 153 155 154 167 190 161 175 198 78 83 132 75 72 148 133 108 82 164 126 162 206 228 312 321 210 222 285 305 304 340 34 127 81 15 113 82 79 56 58 62 55
141 143 145 139 138 127 110 136 151 164 70 41 117 189 70 11 146 177 161 161 133 194 212 215 195 283 231 253 220 234 268 286 306 67 66 104 114 82 74 78 79 69 64 71
115 121 121 118 103 71 103 127 123 119 172 156 149 135 161 355 37 322 143 140 118 214 193 215 105 274 193 222 224 223 232 240 247 166 123 110 103 99 80 83 82 87 71 69
115 108 52 69 102 114 105 51 38 10 342 66 88 110 127 126 118 332 110 170 205 198 228 148 174 254 271 329 39 26 70 59 107 122 121 111 100 81 64 68 70 81 83 85
53 52 67 106 106 72 59 77 92 119 43 187 193 131 139 215 128 131 216 238 186 213 217 148 193 226 328 24 64 38 47 65 65 72 59 75 99 102 92 77 76 81 84 84
117 114 108 102 59 78 97 107 125 188 198 185 148 171 114 160 154 123 215 249 181 213 160 134 184 106 30 59 64 56 53 61 62 61 69 69 76 83 90 90 88 87 90 90
120 73 68 36 350 79 112 162 241 177 167 170 124 116 117 99 142 183 205 218 206 224 134 156 100 86 63 57 67 69 66 68 72 72 74 75 77 77 85 90 90 93 90 94
63 66 75 43 52 50 29 13 55 10 27 108 113 99 127 146 167 203 231 238 352 28 118 77 63 70 64 66 75 84 82 82 84 84 84 83 84 82 81 86 94 94 90 92
49 26 46 51 43 49 11 336 50 359 312 23 64 79 155 169 222 191 187 173 175 15 106 101 104 93 89 88 89 92 93 93 92 92 90 89 90 88 84 83 87 91 92 91
56 38 30 349 52 27 19 354 356 356 340 317 130 148 198 164 306 61 16 33 55 47 80 99 102 95 95 96 96 94 98 96 94 91 91 91 90 91 91 87 85 86 88 85
48 54 16 358 66 60 330 304 315 303 301 358 2 52 15 317 72 61 14 20 84 97 96 96 98 103 104 103 100 100 97 95 94 95 94 94 96 95 93 91 89 86 81 79